Location: Launois
(49.6535°N, 4.5395°E)
Time: 07:09:39
(UTC+00:00)

Cosmos 2360 Rocket - Pass Details

Date: 23 May 2024
Orbit: 832 x 846 km, 71.0° (Epoch: 20 June)

Event Time Altitude Azimuth Distance (km) Brightness Sun altitude
Rises 00:12:50 0° 334° (NNW) 3,415 6.3 -19.3°
Reaches altitude 10° 00:15:49 10° 349° (NNW) 2,478 5.7 -19.2°
Maximum altitude 00:20:18 23° 41° (NE) 1,726 4.5 -19.1°
Drops below altitude 10° 00:24:45 10° 93° (E) 2,471 4.7 -19.0°
Sets 00:27:43 0° 107° (ESE) 3,402 5.3 -18.9°
